DELTA 1 DEB, 3126

Orbit data source: Space-Track

DELTA 1 DEB, 3126 is space debris in LEO originally from a launch on Thu, 11 Jan 1968 UTC launched from the Air Force Western Test Range (AFWTR). Debris objects in space refer to the collection of defunct objects orbiting the Earth. Examples of debris include non-operational satellites, rocket bodies, and fragments generated from explosions, collisions, or faulty payload assembly.

Loading next visibility...
Identifier
3126, 1968-002C
Orbit
LEO
Country
Flag of USUS
Related business
Manufacturer
Unknown
Mission
Spacecraft
Bus & Motor
Unknown
Mass
Unknown
Launch date (UTC)
1968-01-11 (58 years ago)
Launch vehicle
Unknown
Launch site
Air Force Western Test Range (AFWTR)
Object type
Payload
Rocket body
Debris
Shape & HBR
Unknown shape, 0.1 m
Radar Cross Section
Small (<0.1 m²)

Expand to show TLE details & history
Last TLE update: 5 days ago

TLE from 5 days ago
0 DELTA 1 DEB
1  3126U 68002C   26030.94400539 -.00000027  00000-0  16971-3 0  9990
2  3126 106.0643 282.7867 0321595  18.5544   2.4695 12.82461489716696
Epoch: 2026-01-30T22:39Z
TLE epoch observation values (Epoch: 2026-01-30T22:39:22.065Z)
Latitude
20.33611°
Longitude
166.67483°
Altitude
1,085.913 km
Speed
7.427 km/s
True Right ascension
18h 26m 46s
True Declination
20° 13' 45"
Sunlit
Object was in daylight at epoch
Visualization orbit readout
Latitude
Unknown
Longitude
Unknown
Altitude
Unknown
Speed
Unknown
Apparent Right ascension
Unknown
Apparent Declination
Unknown
Sunlit
N/A
Visualization observer readout
Local Sidereal Time
23:58:59
Azimuth
Unknown
Elevation
Unknown
Doppler factor
Unknown
Orbital elements
Apogee altitude
1,577.261 km
Perigee altitude
1,081.521 km
Semi-major axis
7,707.528 km
Eccentricity
0.03216
Inclination
106.0643°
RAAN
282.7867°
Arg. of periapsis
18.5544°
True anomaly
2.63492°
Mean anomaly
2.4695°
Eccentric anomaly
2.55153°
Mean motion
3.20753 °/min
Orbital period
112.24 mins
BSTAR
0.00016971
Loading maneuver chart data...
Computing Atmospheric mass density...
Loading historical data...
Loading historical data...
Loading historical data...
Loading historical data...
Loading historical data...
Loading historical data...
Loading historical data...

Documentation

Showing up to 5 results
|